Weather History for KOLY - December, 2012

Change the Weather History Date:

Monday, December 17, 2012

  Actual Average (KEVV) Record (KEVV)
Temperature  
Mean Temperature 40 °F 35 °F  
Max Temperature 44 °F 43 °F 68 °F (1984)
Min Temperature 37 °F 27 °F -3 °F (1989)
Degree Days  
Heating Degree Days 24 30  
Month to date heating degree days 474  
Since 1 July heating degree days 1335  
Cooling Degree Days 0 0  
Month to date cooling degree days 0  
Year to date cooling degree days 1397  
Moisture  
Dew Point 42 °F    
Average Humidity 100    
Maximum Humidity 100    
Minimum Humidity 100    
Precipitation  
Precipitation 0.10 in 0.11 in 1.95 in (2001)
Month to date precipitation 2.16  
Year to date precipitation 43.71  
Snow  
Snow 0.00 in 0.10 in 1.20 in (1951)
Month to date snowfall 1.4  
Since 1 July snowfall 1.7  
Snow Depth -    
Sea Level Pressure  
Sea Level Pressure 29.70 in    
Wind  
Wind Speed 5 mph (North)    
Max Wind Speed 14 mph    
Max Gust Speed 18 mph    
Visibility 4 miles    
Events Rain , Thunderstorm    
T = Trace of Precipitation, MM = Missing Value Source: NWS Daily Summary

Daily Weather History Graph

Daily Weather History Graph

Search for Another Location

Airport or City:

Trip Planner

Search our weather history database for the weather conditions in past years. The results will help you decide how hot, cold, wet, or windy it might be!

Date:

Astronomy

Dec. 17, 2012 Rise Set
Actual Time 7:05 AM CST 4:33 PM CST
Civil Twilight 6:35 AM CST 5:02 PM CST
Nautical Twilight 6:01 AM CST 5:36 PM CST
Astronomical Twilight 5:29 AM CST 6:08 PM CST
Moon 10:16 AM CST (12/17) 9:51 PM CST (12/17)
Length of Visible Light 10h 27m
Length of Day
9h 27m
Waxing Crescent, 25% of the Moon is Illuminated
Dec 17
Waxing Crescent
Dec 19
First Quarter
Dec 28
Full
Jan 4
Last Quarter
Jan 11
New

Hourly Weather History & Observations

Time (CST) Temp. Windchill Dew Point Humidity Pressure Visibility Wind Dir Wind Speed Gust Speed Precip Events Conditions
12:15 AM 41.0 °F - 41.0 °F 100% 29.75 in 4.0 mi Calm Calm - N/A   Mist
12:35 AM 41.0 °F - 41.0 °F 100% 29.74 in 3.0 mi Calm Calm - N/A   Mist
12:55 AM 42.8 °F - 42.8 °F 100% 29.74 in 4.0 mi Calm Calm - N/A   Overcast
1:15 AM 42.8 °F - 42.8 °F 100% 29.73 in 4.0 mi Calm Calm - N/A   Mist
1:35 AM 42.8 °F - 42.8 °F 100% 29.74 in 4.0 mi Calm Calm - N/A   Mist
1:55 AM 42.8 °F - 42.8 °F 100% 29.74 in 4.0 mi Calm Calm - N/A   Mostly Cloudy
2:15 AM 42.8 °F 38.6 °F 42.8 °F 100% 29.73 in 4.0 mi North 6.9 mph - N/A   Scattered Clouds
2:35 AM 42.8 °F 38.0 °F 42.8 °F 100% 29.73 in 4.0 mi NNE 8.1 mph - N/A   Mostly Cloudy
2:55 AM 42.8 °F 39.3 °F 42.8 °F 100% 29.73 in 5.0 mi NNE 5.8 mph - N/A   Mostly Cloudy
3:15 AM 42.8 °F 41.1 °F 42.8 °F 100% 29.72 in 4.0 mi NE 3.5 mph - N/A   Overcast
3:35 AM 42.8 °F 39.3 °F 42.8 °F 100% 29.71 in 4.0 mi NNE 5.8 mph - N/A   Overcast
3:55 AM 42.8 °F 39.3 °F 42.8 °F 100% 29.71 in 4.0 mi NE 5.8 mph - N/A   Mostly Cloudy
4:15 AM 42.8 °F 39.3 °F 42.8 °F 100% 29.72 in 3.0 mi ENE 5.8 mph - N/A   Overcast
4:35 AM 42.8 °F 39.3 °F 42.8 °F 100% 29.71 in 2.0 mi NE 5.8 mph - N/A   Overcast
4:55 AM 42.8 °F 38.0 °F 42.8 °F 100% 29.70 in 1.5 mi ENE 8.1 mph - N/A   Overcast
5:15 AM 42.8 °F 39.3 °F 42.8 °F 100% 29.70 in 1.8 mi NE 5.8 mph - N/A   Overcast
5:35 AM 42.8 °F 39.3 °F 42.8 °F 100% 29.69 in 1.5 mi ENE 5.8 mph - N/A   Overcast
5:55 AM 42.8 °F 40.1 °F 42.8 °F 100% 29.69 in 2.0 mi NE 4.6 mph - N/A   Overcast
6:15 AM 42.8 °F 39.3 °F 42.8 °F 100% 29.69 in 2.0 mi NE 5.8 mph - N/A   Overcast
6:35 AM 42.8 °F 41.1 °F 42.8 °F 100% 29.70 in 2.0 mi NE 3.5 mph - N/A   Overcast
6:55 AM 42.8 °F 39.3 °F 42.8 °F 100% 29.69 in 1.8 mi NNE 5.8 mph - N/A   Overcast
7:15 AM 42.8 °F 39.3 °F 42.8 °F 100% 29.69 in 1.5 mi NNE 5.8 mph - N/A   Overcast
7:35 AM 42.8 °F 38.6 °F 42.8 °F 100% 29.68 in 1.8 mi North 6.9 mph - N/A   Overcast
7:55 AM 42.8 °F 38.6 °F 42.8 °F 100% 29.68 in 2.0 mi NNE 6.9 mph - N/A   Overcast
8:15 AM 42.8 °F 39.3 °F 42.8 °F 100% 29.69 in 2.0 mi NE 5.8 mph - N/A   Overcast
8:35 AM 42.8 °F 39.3 °F 42.8 °F 100% 29.69 in 2.0 mi NE 5.8 mph - N/A   Overcast
8:55 AM 42.8 °F 40.1 °F 42.8 °F 100% 29.69 in 2.5 mi NE 4.6 mph - N/A   Overcast
9:15 AM 42.8 °F 36.2 °F 42.8 °F 100% 29.66 in 2.0 mi ENE 12.7 mph - N/A Rain Rain
9:35 AM 42.8 °F 40.1 °F 42.8 °F 100% 29.67 in 1.8 mi NE 4.6 mph - N/A Rain Light Rain
9:55 AM 42.8 °F 38.0 °F 42.8 °F 100% 29.69 in 1.8 mi NNW 8.1 mph - N/A   Overcast
10:15 AM 42.8 °F 37.0 °F 42.8 °F 100% 29.67 in 1.5 mi NNW 10.4 mph - N/A   Overcast
10:35 AM 42.8 °F 38.0 °F 42.8 °F 100% 29.67 in 2.0 mi NNW 8.1 mph - N/A   Overcast
10:55 AM 42.8 °F 37.5 °F 42.8 °F 100% 29.65 in 2.0 mi North 9.2 mph - N/A   Overcast
11:15 AM 42.8 °F 37.0 °F 42.8 °F 100% 29.64 in 2.0 mi NNE 10.4 mph - N/A Rain Light Rain
11:35 AM 42.8 °F 38.0 °F 42.8 °F 100% 29.62 in 2.0 mi NNE 8.1 mph - N/A Thunderstorm Overcast
11:55 AM 42.8 °F 40.1 °F 42.8 °F 100% 29.63 in 2.0 mi NNE 4.6 mph - 0.03 in Rain , Thunderstorm Heavy Thunderstorms and Rain
12:15 PM 42.8 °F - 42.8 °F 100% 29.63 in 2.5 mi Calm Calm - 0.05 in Rain Light Rain
12:35 PM 44.6 °F 42.2 °F 44.6 °F 100% 29.62 in 2.5 mi NNE 4.6 mph - 0.05 in Rain , Thunderstorm Light Thunderstorms and Rain
12:55 PM 44.6 °F 43.1 °F 44.6 °F 100% 29.62 in 3.0 mi North 3.5 mph - N/A   Overcast
1:15 PM 44.6 °F 42.2 °F 44.6 °F 100% 29.62 in 3.0 mi North 4.6 mph - N/A Rain Light Rain
1:35 PM 44.6 °F 43.1 °F 44.6 °F 100% 29.61 in 4.0 mi North 3.5 mph - N/A   Mist
1:55 PM 44.6 °F 40.7 °F 44.6 °F 100% 29.62 in 4.0 mi NNW 6.9 mph - N/A   Overcast
2:15 PM 44.6 °F 39.7 °F 44.6 °F 100% 29.62 in 2.0 mi NNW 9.2 mph - N/A   Drizzle
2:35 PM 44.6 °F 40.2 °F 44.6 °F 100% 29.63 in 2.5 mi NW 8.1 mph - N/A   Overcast
2:55 PM 44.6 °F 39.2 °F 44.6 °F 100% 29.63 in 2.5 mi NW 10.4 mph - N/A   Overcast
3:15 PM 42.8 °F 36.6 °F 42.8 °F 100% 29.64 in 3.0 mi WNW 11.5 mph - N/A   Overcast
3:35 PM 42.8 °F 39.3 °F 42.8 °F 100% 29.64 in 3.0 mi NW 5.8 mph - N/A   Overcast
6:15 PM 39.2 °F 33.6 °F 39.2 °F 100% 29.69 in 3.0 mi NW 8.1 mph - N/A   Overcast
6:35 PM 39.2 °F 33.0 °F 39.2 °F 100% 29.70 in 3.0 mi WNW 9.2 mph - N/A   Overcast
6:55 PM 39.2 °F 33.0 °F 39.2 °F 100% 29.70 in 4.0 mi NW 9.2 mph - N/A Rain Light Rain
7:15 PM 39.2 °F 33.6 °F 39.2 °F 100% 29.71 in 4.0 mi NW 8.1 mph - N/A   Light Drizzle
7:35 PM 39.2 °F 33.0 °F 39.2 °F 100% 29.72 in 4.0 mi WNW 9.2 mph - N/A Rain Rain
7:55 PM 39.2 °F 33.0 °F 39.2 °F 100% 29.72 in 4.0 mi WNW 9.2 mph - N/A Rain Light Rain
8:15 PM 39.2 °F 33.0 °F 39.2 °F 100% 29.73 in 7.0 mi West 9.2 mph - 0.01 in Rain Light Rain
8:35 PM 39.2 °F 32.0 °F 39.2 °F 100% 29.73 in 7.0 mi WNW 11.5 mph - 0.02 in Rain Light Rain
8:55 PM 39.2 °F 32.5 °F 39.2 °F 100% 29.73 in 7.0 mi WNW 10.4 mph - N/A Rain Rain
9:15 PM 39.2 °F 33.6 °F 39.2 °F 100% 29.74 in 7.0 mi West 8.1 mph - N/A   Overcast
9:35 PM 39.2 °F 32.0 °F 39.2 °F 100% 29.75 in 10.0 mi West 11.5 mph 18.4 mph N/A   Overcast
9:55 PM 39.2 °F 32.5 °F 39.2 °F 100% 29.76 in 10.0 mi West 10.4 mph - N/A   Overcast
10:15 PM 39.2 °F 31.6 °F 39.2 °F 100% 29.76 in 10.0 mi West 12.7 mph - N/A   Overcast
10:35 PM 37.4 °F 29.8 °F 37.4 °F 100% 29.76 in 7.0 mi WNW 11.5 mph - N/A   Overcast
10:55 PM 37.4 °F 30.3 °F 37.4 °F 100% 29.77 in 7.0 mi WNW 10.4 mph - N/A   Overcast
11:15 PM 37.4 °F 28.9 °F 37.4 °F 100% 29.77 in 7.0 mi WNW 13.8 mph - N/A   Overcast
11:35 PM 37.4 °F 29.8 °F 37.4 °F 100% 29.78 in 7.0 mi WNW 11.5 mph - N/A   Overcast
11:55 PM 37.4 °F 31.4 °F 37.4 °F 100% 29.79 in 5.0 mi West 8.1 mph - N/A   Overcast